User: anonymous   Login
Location: Cahas Mountain Overlook
(37.0833°N, 80.1000°W)
Time: 21:56:13
(UTC-04:00)
Language:

Transit 2A - Orbit

View from above orbital plane
View from above orbital plane
View from above satellite
View from above satellite

Ground track
Ground track

The orbit data is extracted from the following two-line orbital elements,

1 00045U 60007A   22228.79645996  .00000179  00000-0  72335-4 0  9994
2 00045  66.6943  97.9196 0247497 100.6650 262.2423 14.33887721179133
Epoch (UTC): 16 August 2022 19:06:54
Eccentricity: 0.0247497
inclination: 66.6943°
perigee height: 601 km
apogee height: 956 km
right ascension of ascending node: 97.9196°
argument of perigee: 100.6650°
revolutions per day: 14.33887721
mean anomaly at epoch: 262.2423°
orbit number at epoch: 17913

The dashed part of the orbit path shows where the satellite is in the earth's shadow,  

DLR